Location: Gorze? G�rny
(49.8500°N, 19.5000°E)
Time: 03:05:04
(UTC+00:00)

Cosmos 1862 Rocket - Pass Details

Date: 13 May 2021
Orbit: 604 x 633 km, 82.5° (Epoch: 20 June)

Event Time Altitude Azimuth Distance (km) Brightness Sun altitude
Exits shadow 21:07:18 42° 144° (SE) 869 3.8 -18.6°
Maximum altitude 21:08:23 55° 95° (E) 733 3.7 -18.7°
Drops below altitude 10° 21:12:37 10° 18° (NNE) 1,965 6.8 -19.0°
Sets 21:14:52 0° 14° (NNE) 2,874 7.9 -19.1°
